NSS-9

Last updated on Thu Sep 10 2026 00:02:56 GMT+0000 (Coordinated Universal Time)

1 33749U 09008A 26252.55594587 .00000051 00000+0 00000+0 0 9992 2 33749 1.4735 81.6695 0002194 85.4037 204.7424 1.00272496 64369
UTC large
Height (km)
Speed (km/s)
/
Latitude / Longitude
Inclination (degrees)
Orbital Period (minutes)
Azimuth
Elevation
Range (km)
Doppler Factor

Next 0 passes for location: London (51.5072 / 0.1276)

No passes found over London.
NSS-9